Location: Unspecified
(58.9933°N, 5.6375°E)
Time: 15:32:53
(UTC+02:00)

Cosmos 2058 - Visible Passes

Search period start: 16 August 2017 00:00
Search period end: 26 August 2017 00:00
Orbit: 562 x 586 km, 82.5° (Epoch: 16 August)

Date Brightness Start Highest point End Pass type
(mag) Time Alt. Az. Time Alt. Az. Time Alt. Az.
16 Aug 4.2 02:58:15 10° N 03:02:07 38° ENE 03:05:58 10° SE visible
16 Aug 3.6 04:35:18 10° NNW 04:39:04 35° W 04:42:48 10° SSW visible
17 Aug 5.9 01:26:30 10° NNE 01:27:28 11° NE 01:28:26 10° ENE visible
17 Aug 3.8 03:01:32 10° N 03:05:31 46° ENE 03:09:30 10° SE visible
17 Aug 3.9 04:38:46 10° NNW 04:42:19 29° W 04:45:44 11° SSW visible
18 Aug 5.7 01:29:12 10° NNE 01:31:01 12° NE 01:32:49 10° ENE visible
18 Aug 3.4 03:04:50 10° N 03:08:55 56° ENE 03:12:24 14° SSE visible
18 Aug 4.2 04:42:16 10° NW 04:45:35 24° W 04:48:35 11° SW visible
19 Aug 5.6 01:32:10 10° NNE 01:34:32 15° NE 01:36:53 10° E visible
19 Aug 3.1 03:08:10 10° N 03:12:17 70° ENE 03:15:16 18° SSE visible
19 Aug 4.5 04:45:50 10° NW 04:48:49 20° W 04:51:28 11° SW visible
20 Aug 5.4 01:35:17 10° NNE 01:38:02 17° NE 01:40:47 10° E visible
20 Aug 2.9 03:11:30 10° NNW 03:15:39 86° ENE 03:18:12 23° SSE visible
20 Aug 4.7 04:49:27 10° NW 04:52:02 16° W 04:54:24 11° WSW visible
21 Aug 5.2 01:38:26 10° N 01:41:31 20° ENE 01:44:36 10° ESE visible
21 Aug 2.8 03:14:52 10° NNW 03:19:00 78° W 03:21:09 27° S visible
21 Aug 4.9 04:53:13 10° NW 04:55:14 13° W 04:57:16 10° WSW visible
22 Aug 4.9 01:41:37 10° N 01:45:00 23° ENE 01:47:56 12° ESE visible
22 Aug 2.9 03:18:14 10° NNW 03:22:19 63° W 03:24:07 31° SSW visible
22 Aug 5.1 04:57:19 10° WNW 04:58:26 11° WNW 04:59:33 10° W visible
23 Aug 4.6 01:44:51 10° N 01:48:26 28° ENE 01:50:55 16° ESE visible
23 Aug 3.2 03:21:37 10° NNW 03:25:38 50° W 03:27:07 33° SSW visible
24 Aug 4.3 01:48:06 10° N 01:51:53 33° ENE 01:53:57 21° ESE visible
24 Aug 3.5 03:25:03 10° NNW 03:28:56 41° W 03:30:09 32° SW visible
25 Aug 3.9 01:51:23 10° N 01:55:18 40° ENE 01:56:59 27° ESE visible
25 Aug 3.8 03:28:29 10° NNW 03:32:13 33° W 03:33:11 29° WSW visible
